Preview of NWS' New Version of Forecast
This preview is not operational and should not be used for support decisions.

Regional Weather Roundup (RWR)

Issued by National Weather Service (NWS)

                            
000
ASUS42 KTBW 191017
RWRFL 
FLORIDA REGIONAL WEATHER ROUNDUP
NATIONAL WEATHER SERVICE TAMPA BAY RUSKIN FL
500 AM EST TUE FEB 19 2019

NOTE: "FAIR" INDICATES FEW OR NO CLOUDS BELOW 12,000 FEET WITH NO
SIGNIFICANT WEATHER AND/OR OBSTRUCTIONS TO VISIBILITY.

FLZ001>010-012>015-112-114-115-191100-
PANHANDLE FLORIDA
  
CITY           SKY/WX    TMP DP  RH WIND       PRES   REMARKS
PENSACOLA      CLOUDY    60  40  47 NE8       30.18S                  
PENSACOLA NAS  CLOUDY    60  43  53 NE13      30.17S                  
MILTON NAS     CLOUDY    57  37  47 E10G16    30.19                   
CRESTVIEW      CLOUDY    58  35  42 NE7       30.22S                  
DUKE FIELD     CLOUDY    58  37  45 E8        30.20S                  
VALPARAISO     CLOUDY    59  44  58 E16       30.17F                  
MARY ESTHER    CLOUDY    59  45  58 E14       30.17F                  
PANAMA CITY    CLOUDY    57  46  66 N10       30.19S                  
TYNDALL AFB    CLOUDY    60  44  56 NE12G18   30.18S                  
APALACHICOLA   CLOUDY    61  46  57 E9        30.18S                  

STATION/POSITION SKY/WX   TEMP    WIND        PRES    WAVE   SWELL
                          AIR SEA DIR/SP/G            HT/PER HT/PER
                          (F)     (DEG/KT/KT) (MB)    (FT/S) (FT/S)
30.1N   87.6W              62      70/ 23/ 31 1021.1F   6/ 7   2/13
29.2N   88.2W                      80/ 23/ 27 1019.7F  10/ 8
PANAMA CITY BEAC           57 62   50/ 12/ 18 1022.1F
TOWER C                    62      70/ 20/ 21 1021.7F

$$
FLZ011-016>038-118-127-128-134-139-239-191100-
NORTH FLORIDA
  
CITY           SKY/WX    TMP DP  RH WIND       PRES   REMARKS
MARIANNA       CLOUDY    54  46  74 NE15      30.24S                  
TALLAHASSEE    CLOUDY    61  46  57 N5        30.21S                  
PERRY          CLOUDY    64  44  48 E8        30.21S                  
LIVE OAK       CLOUDY    61  45  55 N3        30.21R                  
CROSS CITY     MOCLDY    60  46  60 NE5       30.20S                  
LAKE CITY      FAIR      61  41  48 E5        30.21S                  
GAINESVILLE    FAIR      62  47  57 NE6       30.22F                  
WILLISTON        N/A    N/A N/A N/A MISG        N/A                   
PALATKA        CLOUDY    64  50  59 E12       30.21F                  
MAYPORT NAS    MOCLDY    62  55  77 NE10      30.23S                  
JACKSONVILLE   FAIR      57  46  66 NE8       30.22F                  
JAX NAS        MOCLDY    65  48  54 E8        30.23F                  
JAX CECIL      CLOUDY    61  46  59 CALM      30.22S                  
FERNANDINA BEA FAIR      60  52  74 NE12      30.24R                  
ST AUGUSTINE   MOCLDY    61  55  81 NE8       30.23F                  
PALM COAST     LGT RAIN  62  56  81 N10       30.21S                  

STATION/POSITION SKY/WX   TEMP    WIND        PRES    WAVE   SWELL
                          AIR SEA DIR/SP/G            HT/PER HT/PER
                          (F)     (DEG/KT/KT) (MB)    (FT/S) (FT/S)
SHELL POINT      NOT AVBL
KEATON BEACH               62      60/ 10/ 14 1022.5R
CEDAR KEY                  63      70/ 14/ 15 1022.1S
FERNANDINA                 61 63   30/  5/  9 1024.5F
30.7N   81.3W                 60                N/A     2/ 8
MAYPORT                    62 62   40/ 10/ 12 1023.7F
31.4N   80.9W              60 58   40/ 10/ 12 1024.2R   2/ 8   2/ 8
ST AUGUSTINE               61 61  360/ 10/ 11 1023.4F

$$
FLZ040-043>046-052-053-057-058-063-144-191100-
INTERIOR CENTRAL FLORIDA
  
CITY           SKY/WX    TMP DP  RH WIND       PRES   REMARKS
OCALA          CLOUDY    65  46  50 NE8       30.19F                  
LEESBURG       CLOUDY    63  50  62 NE8       30.19F                  
SANFORD        CLOUDY    64  57  78 N8        30.18F                  
ORLANDO EXEC   CLOUDY    65  58  78 NE9       30.18S                  
ORLANDO INTL   CLOUDY    66  60  81 NE10      30.18R                  
KISSIMMEE      CLOUDY    68  64  87 NE6       30.19R                  
WINTER HAVEN   CLOUDY    70  64  81 NE6       30.18S                  
LAKELAND       CLOUDY    64  63  94 NE9       30.17S                  
BARTOW         CLOUDY    68  66  94 NE7       30.16S                  
SEBRING        FOG       68  68  99 NE5       30.16R VSB 1/4          
OKEECHOBEE       N/A     72  72 100 CALM      30.15R                  

$$
FLZ041-047-054-059-064-141-147-191100-
EAST CENTRAL FLORIDA
  
CITY           SKY/WX    TMP DP  RH WIND       PRES   REMARKS
DAYTONA BEACH  CLOUDY    63  60  90 N14       30.19F                  
DELAND         CLOUDY    63  55  77 NE9       30.19S                  
JFK SPACE CTR  CLOUDY    66 N/A N/A N9        30.17S                  
CAPE CANAVERAL CLOUDY    66  64  91 N9        30.16R                  
PATRICK AFB    FAIR      68  68 100 N9        30.16S                  
MELBOURNE      CLOUDY    70  68  93 N8        30.16R FOG              
VERO BEACH     CLOUDY    71  70  96 SE5       30.15S FOG              
FT PIERCE      CLOUDY    73  71  93 CALM      30.15                   
STUART         FAIR      73  72  94 S3        30.16S                  

STATION/POSITION SKY/WX   TEMP    WIND        PRES    WAVE   SWELL
                          AIR SEA DIR/SP/G            HT/PER HT/PER
                          (F)     (DEG/KT/KT) (MB)    (FT/S) (FT/S)
28.5N   80.2W              67     350/  6/  6 1021.7R   2/ 9   2/ 9
28.9N   78.5W              76 77  190/  8/ 10 1022.6S   3/ 8   2/ 8
TRIDENT PIER               66 67  350/  9/ 11 1022.7R
28.4N   80.5W                 66                N/A     2/ 8

$$
FLZ050-056-061-142-242-148-248-149-249-151-251-155-255-
160-260-191100-
WEST CENTRAL FLORIDA
  
CITY           SKY/WX    TMP DP  RH WIND       PRES   REMARKS
CRYSTAL RIVER  CLOUDY    64  46  52 E9        30.18S                  
INVERNESS      CLOUDY    64  52  63 NE6       30.19S                  
BROOKSVILLE    CLOUDY    65  54  67 NE7       30.18S                  
CLEARWATER AIR FAIR      63  61  94 E6        30.16S                  
ST PETE CLEARW MOCLDY    66  62  87 NE9       30.15F                  
TAMPA INTL     MOCLDY    66  62  87 NE7       30.16S                  
TAMPA EXEC     CLOUDY    64  63  94 NE5       30.17S                  
PLANT CITY     CLOUDY    66  64  94 NE7       30.18S                  
MACDILL AFB    MOCLDY    64  61  88 NE10      30.15S                  
PETER O KNIGHT CLOUDY   N/A N/A N/A NE10      30.17R                  
ST PETERSBURG  FAIR      67  63  87 NE13      30.14S                  
SARASOTA       FAIR      67  65  93 NE7       30.13S                  
VENICE         MOCLDY    70  70 100 NE9       30.14S FOG              

STATION/POSITION SKY/WX   TEMP    WIND        PRES    WAVE   SWELL
                          AIR SEA DIR/SP/G            HT/PER HT/PER
                          (F)     (DEG/KT/KT) (MB)    (FT/S) (FT/S)
27.3N   84.2W                 72                N/A     4/ 8
CLEARWATER BEACH           66 69   80/  8/ 11 1021.2F
MIDDLE TAMPA BAY           67      70/ 12/ 14 1021.2F
VENICE                     70 68   70/  5/  6   N/A

$$
FLZ066-069-070-075>078-162-262-165-265-191100-
SOUTHWEST FLORIDA AND KEYS
  
CITY           SKY/WX    TMP DP  RH WIND       PRES   REMARKS
PUNTA GORDA    FOG       65  65 100 SE3       30.16S VSB 1/2          
FT MYERS       MOCLDY    69  67  93 CALM      30.13S                  
SOUTHWEST INTL FAIR      69  68  96 E5        30.14S                  
NAPLES         FOG       72  72 100 E6        30.13S VSB 1/4          
MARCO ISLAND   CLOUDY   N/A N/A N/A E5        30.14S HAZE             
IMMOKALEE      FOG       66  64  94 CALM      30.12S VSB 1/2          
MARATHON       FAIR      80  72  76 E9        30.11S                  
KEY WEST NAS   FAIR      78  73  84 E13       30.11R                  
KEY WEST INTL  FAIR      78  73  84 E14       30.11S                  

STATION/POSITION SKY/WX   TEMP    WIND        PRES    WAVE   SWELL
                          AIR SEA DIR/SP/G            HT/PER HT/PER
                          (F)     (DEG/KT/KT) (MB)    (FT/S) (FT/S)
NAPLES                     74 74  100/  4/  6 1020.2S
26.0N   85.6W              78 79  130/ 14/ 21 1018.2
DRY TORTUGAS               76      90/ 11/ 11 1018.9F
SAND KEY                   77                 1019.2F
SOMBRERO KEY               78                 1019.0S
LONG KEY                   77 78  120/ 12/ 13 1019.6S
MOLASSES REEF              78      80/  8     1020.3

$$
FLZ067-068-071>074-168-172>174-191100-
SOUTHEAST FLORIDA 
  
CITY           SKY/WX    TMP DP  RH WIND       PRES   REMARKS
W PALM BEACH   FAIR      74  71  91 E3        30.15F                  
FT LAUDER-EXEC FAIR      75  74  96 SE6       30.14S                  
FT LAUDERDALE  FAIR      77  76  96 SE9       30.13S                  
POMPANO BEACH  FAIR      77  72  84 SE7       30.14S                  
PEMBROKE PINES FAIR      73  71  93 E6        30.15S                  
OPA LOCKA      MOCLDY    75  72  90 E3        30.14S                  
MIAMI          MOCLDY    76  75  97 E6        30.14S                  
WEST KENDALL   CLOUDY    75  73  93 E7        30.13S                  
HOMESTEAD      FAIR      75  73  94 E3        30.12S                  

STATION/POSITION SKY/WX   TEMP    WIND        PRES    WAVE   SWELL
                          AIR SEA DIR/SP/G            HT/PER HT/PER
                          (F)     (DEG/KT/KT) (MB)    (FT/S) (FT/S)
PORT EVERGLADES            78     130/  5/  7 1020.6
VIRGINIA KEY               77 78  100/  5/  7 1020.0R
LAKE WORTH                 77 77  180/  7/  8 1022.0F
FOWEY ROCKS                77 77  120/ 16/ 16 1020.8F
SETTLEMENT POINT           75     130/  4/  5 1021.5S

$$